This demonstration page uses our WeatherBlox Daily Observations layout. Learn more.

Left ArrowRight Arrow

39.92423, -83.80882

Hourly Observations for April 11, 2021

Temp ( °F °C ) Dew Point ( °F °C ) Humidity (%) Winds ( mph kmh ) Pressure ( in mb ) Visibility ( mi km ) Precip ( " mm )
12:56 am 00:56 Partly Cloudy 53 11.7 53 11.7 100 100 S 6 9 29.48 998 10 16.0934 0 0
1:56 am 01:56 Clear 53 11.7 53 11.7 100 100 S 6 9 29.46 998 10 16.0934 0 0
2:56 am 02:56 Clear 53 11.7 52 11.1 96 96 SSW 5 7 29.44 997 10 16.0934 0 0
3:56 am 03:56 Clear 51 10.6 50 10 96 96 SSW 8 13 29.44 997 10 16.0934 0 0
4:56 am 04:56 Clear 49 9.4 48 8.9 97 97 SW 8 13 29.45 997 10 16.0934 0 0
5:56 am 05:56 Clear 48 8.9 46 7.8 93 93 SSW 7 11 29.45 997 10 16.0934 0 0
6:56 am 06:56 Cloudy 50 10 46 7.8 86 86 S 9 15 29.45 997 10 16.0934 0 0
7:56 am 07:56 Cloudy 50 10 46 7.8 86 86 S 12 19 29.46 998 10 16.0934 0 0
8:56 am 08:56 Cloudy with Light Rain 50 10 47 8.3 89 89 S 10 17 29.46 998 10 16.0934 0 0
9:56 am 09:56 Cloudy 51 10.6 48 8.9 89 89 S 12 19 29.45 997 10 16.0934 0 0
10:03 am 10:03 Cloudy 52 11 48 9 88 88 SSW 10 17 29.46 998 10 16.0934 0 0
10:56 am 10:56 Cloudy 51 10.6 47 8.3 86 86 SSW 14 22 29.44 997 10 16.0934 0 0
11:56 am 11:56 Cloudy with Light Rain 50 10 48 8.9 93 93 SW 14 22 29.45 997 9 14.48406 0 0
12:39 pm 12:39 Cloudy with Light Rain 50 10 50 10 100 100 S 12 19 29.46 998 4 6.43736 0 0
12:51 pm 12:51 Cloudy with Light Rain 50 10 50 10 100 100 S 9 15 29.46 998 8 12.87472 0 0
12:56 pm 12:56 Cloudy with Light Rain 50 10 50 10 100 100 S 12 19 29.45 997 10 16.0934 0 0
1:23 pm 13:23 Cloudy with Light Rain 50 10 50 10 100 100 S 10 17 29.46 998 7 11.26538 0 0
1:35 pm 13:35 Cloudy 52 11 52 11 100 100 SSW 10 17 29.46 998 10 16.0934 0 0
1:56 pm 13:56 Cloudy with Light Rain 51 10.6 51 10.6 100 100 SSW 13 20 29.46 998 5 8.0467 0 0
2:34 pm 14:34 Cloudy 54 12 50 10 88 88 SSW 15 24 29.45 997 10 16.0934 0 0
2:56 pm 14:56 Cloudy 52 11.1 49 9.4 89 89 SSW 12 19 29.46 998 10 16.0934 0 0
3:56 pm 15:56 Cloudy with Light Rain 50 10 50 10 100 100 SSW 9 15 29.47 998 10 16.0934 0 0
4:26 pm 16:26 Cloudy 52 11 52 11 100 100 SSW 12 19 29.47 998 10 16.0934 0 0
4:56 pm 16:56 Cloudy with Light Rain 50 10 50 10 100 100 SW 13 20 29.48 998 10 16.0934 0 0
5:11 pm 17:11 Cloudy with Light Rain 50 10 50 10 100 100 SW 12 19 29.49 999 10 16.0934 0 0
5:28 pm 17:28 Cloudy with Light Rain 50 10 50 10 100 100 SSW 9 15 29.49 999 7 11.26538 0 0
5:32 pm 17:32 Cloudy with Light Rain 50 10 50 10 100 100 SW 13 20 29.49 999 7 11.26538 0 0
5:56 pm 17:56 Cloudy with Light Rain 50 10 50 10 100 100 SW 13 20 29.49 999 10 16.0934 0 0
6:45 pm 18:45 Cloudy with Light Rain 50 10 50 10 100 100 SW 10 17 29.51 999 10 16.0934 0 0
6:56 pm 18:56 Cloudy with Light Rain 50 10 50 10 100 100 SW 12 19 29.51 999 10 16.0934 0 0
7:13 pm 19:13 Cloudy with Light Rain 50 10 50 10 100 100 W 13 20 29.51 999 6 9.65604 0 0
7:23 pm 19:23 Cloudy with Light Rain 48 9 48 9 100 100 WSW 10 17 29.53 1000 9 14.48406 0 0
7:34 pm 19:34 Cloudy with Light Rain 48 9 48 9 100 100 WSW 10 17 29.53 1000 10 16.0934 0 0
7:51 pm 19:51 Cloudy 48 9 48 9 100 100 SW 8 13 29.54 1000 7 11.26538 0 0
7:56 pm 19:56 Cloudy with Light Rain 49 9.4 49 9.4 100 100 SW 8 13 29.53 1000 7 11.26538 0 0
8:13 pm 20:13 Cloudy with Light Rain 48 9 48 9 100 100 WSW 10 17 29.54 1000 5 8.0467 0 0
8:31 pm 20:31 Cloudy with Light Rain 48 9 48 9 100 100 WSW 12 19 29.55 1001 10 16.0934 0 0
8:56 pm 20:56 Cloudy 49 9.4 49 9.4 100 100 SW 8 13 29.55 1001 10 16.0934 0 0
9:14 pm 21:14 Cloudy with Light Rain 48 9 48 9 100 100 SW 13 20 29.57 1001 10 16.0934 0 0
9:56 pm 21:56 Cloudy 48 8.9 48 8.9 100 100 WSW 9 15 29.56 1001 10 16.0934 0 0
10:56 pm 22:56 Cloudy 49 9.4 48 8.9 97 97 SW 14 22 29.57 1002 10 16.0934 0 0
11:32 pm 23:32 Cloudy 48 9 48 9 100 100 SW 15 24 29.59 1002 10 16.0934 0 0
11:56 pm 23:56 Cloudy 48 8.9 48 8.9 100 100 SW 14 22 29.58 1002 10 16.0934 0 0

Powered by AerisWeather